"Pseudo-MPEC" for P21vyty

Created 2022 Sep 6 15:22:36 UT using Find_Orb

Click here for an explanation of pseudo-MPECs

 
 Astrometry: 
     P21vyty* C2022 07 28I3'5(.o[`x9rUUcNoj3O8w@pJ!pnos'vb0+WAstrometryEE8D80F52
     P21vyty  C2022 07 28Sms'==nlUlfKpfL@5A:rVW4LVLJo6Wc_YS%[yl`Jredacted;2gjF52
     P21vyty  C2022 07 28G.*;D]OclickJ:UNck,%TE94Rro,/VQvFR_+JeFo#Osq^4Obm]-,F52
     P21vyty  C2022 07 28q9%@EC)!N[e-+*-Ta\(X@*FIl:`SF1l%Ql#4G+:If%0LdqKS.^M8F52
     P21vyty  C2022 07 28*P^D67EG^JRP'gwg[!SaeY%]`Pjn4a?nyc_7.,u39%nZV[;1iVwHF52
     P21vyty KC2022 07 30[4.2$WFBr?kq)*bkj]X)here'for=sbY*Q5[Tqo]ts)pE#;q`EYQH21
     P21vyty KC2022 07 306qds3k7`-JE_explanation_m0v/mJ)Qt(T6y:5YE%P/S=Tj$b:IH21
     P21vyty KC2022 07 30!SOn%#1)`$ipnBd)!0c+sI(`MjTvE-%9K_p7hWSF$:BhxxRa)W,bH21

Station data:
(F52) Pan-STARRS 2, Haleakala  (N20.707382 W156.255910)  US/Hawaii.
   Observers J. Bulger, T. Dukes, T. Lowe, A. Schultz, M. Willman. Measurers
   K. Chambers, S. Chastel, T. de Boer, L. Denneau, J. Fairlamb, H.
   Flewelling, M. Huber, C.-C. Lin, E. Magnier, Y. Ramanjooloo, R. Wainscoat,
   R. Weryk. 1.8-m Ritchey-Chrétien + CCD.
(H21) Astronomical Research Observatory, Westfield  (N39.483054 W87.968270)
   US/Illinois.  Observer R. Holmes. Measurers S. Foglia, L. Buzzi, T.
   Linder, R. Holmes. 0.76-m f/3.0 astrograph + CCD0.81-m f/4.0 astrograph +
   CCD0.61-m f/4.5 astrograph + CCD0.40-m f/5.32 astrograph + CCD.

Orbital elements:  P21vyty
   Perihelion 2022 Sep 15.80122 TT = 19:13:45 (JD 2459838.30122)
Epoch 2022 Jul 30.0 TT = JDT 2459790.5   Earth MOID: 0.6455   Ju: 0.2616
q   1.62010494                      (J2000 ecliptic)
H   20.7  G 0.15   Peri.  101.67075
                   Node   246.89597
e   1.0000011      Incl.    9.22208
From 8 observations 2022 July 28-30 (45.9 hr); mean residual 0".22
Residuals in arcseconds: 
220728 F52  .08-  .11+    220728 F52  .27+  .21-    220730 H21  .11+  .40-    
220728 F52  .03-  .03+    220728 F52  .03-  .04+    220730 H21  .11+  .16-    
220728 F52  .12-  .01+    220730 H21  .24-  .57+    

Ephemerides (geocentric):
Date (UTC) HH   RA             Dec           delta  r     elong  mag
---- --------  ------------   ------------  ------ ------ -----  ---
2022 09 06 15  22 11 38.067   +14 02 46.04  .65058 1.6248 156.3 21.6
2022 09 06 16  22 11 39.824   +14 02 53.10  .65056 1.6248 156.3 21.6
2022 09 06 17  22 11 41.584   +14 03 00.12  .65054 1.6248 156.3 21.6
2022 09 06 18  22 11 43.345   +14 03 07.10  .65051 1.6247 156.3 21.6
2022 09 06 19  22 11 45.108   +14 03 14.04  .65049 1.6247 156.3 21.6
2022 09 06 20  22 11 46.873   +14 03 20.94  .65047 1.6246 156.3 21.6
2022 09 06 21  22 11 48.640   +14 03 27.80  .65045 1.6246 156.3 21.6
2022 09 06 22  22 11 50.409   +14 03 34.61  .65043 1.6245 156.3 21.6
2022 09 06 23  22 11 52.180   +14 03 41.38  .65040 1.6245 156.3 21.6
2022 09 07 00  22 11 53.953   +14 03 48.12  .65038 1.6245 156.3 21.6
2022 09 07 01  22 11 55.728   +14 03 54.81  .65036 1.6244 156.3 21.6
2022 09 07 02  22 11 57.505   +14 04 01.45  .65034 1.6244 156.3 21.6
2022 09 07 03  22 11 59.284   +14 04 08.06  .65032 1.6243 156.3 21.6
2022 09 07 04  22 12 01.065   +14 04 14.63  .65030 1.6243 156.2 21.6
2022 09 07 05  22 12 02.848   +14 04 21.15  .65028 1.6243 156.2 21.6
2022 09 07 06  22 12 04.632   +14 04 27.63  .65026 1.6242 156.2 21.6
2022 09 07 07  22 12 06.419   +14 04 34.08  .65024 1.6242 156.2 21.6
2022 09 07 08  22 12 08.208   +14 04 40.48  .65023 1.6241 156.2 21.6
2022 09 07 09  22 12 09.998   +14 04 46.83  .65021 1.6241 156.2 21.6
2022 09 07 10  22 12 11.791   +14 04 53.15  .65019 1.6241 156.2 21.6
2022 09 07 11  22 12 13.586   +14 04 59.43  .65017 1.6240 156.2 21.6
2022 09 07 12  22 12 15.382   +14 05 05.66  .65015 1.6240 156.2 21.6
2022 09 07 13  22 12 17.181   +14 05 11.86  .65014 1.6239 156.2 21.6
2022 09 07 14  22 12 18.981   +14 05 18.01  .65012 1.6239 156.2 21.6
2022 09 07 15  22 12 20.784   +14 05 24.12  .65010 1.6239 156.2 21.6
2022 09 07 16  22 12 22.588   +14 05 30.19  .65009 1.6238 156.2 21.6
2022 09 07 17  22 12 24.395   +14 05 36.22  .65007 1.6238 156.2 21.6
2022 09 07 18  22 12 26.204   +14 05 42.20  .65005 1.6238 156.2 21.6
2022 09 07 19  22 12 28.014   +14 05 48.15  .65004 1.6237 156.2 21.6
2022 09 07 20  22 12 29.827   +14 05 54.05  .65002 1.6237 156.2 21.6
2022 09 07 21  22 12 31.641   +14 05 59.92  .65001 1.6236 156.2 21.6
2022 09 07 22  22 12 33.458   +14 06 05.74  .64999 1.6236 156.2 21.6
2022 09 07 23  22 12 35.276   +14 06 11.52  .64998 1.6236 156.2 21.6
2022 09 08 00  22 12 37.097   +14 06 17.26  .64996 1.6235 156.2 21.6
2022 09 08 01  22 12 38.919   +14 06 22.96  .64995 1.6235 156.2 21.6
2022 09 08 02  22 12 40.744   +14 06 28.62  .64994 1.6235 156.2 21.6
2022 09 08 03  22 12 42.571   +14 06 34.24  .64992 1.6234 156.2 21.6
2022 09 08 04  22 12 44.399   +14 06 39.82  .64991 1.6234 156.1 21.6
2022 09 08 05  22 12 46.230   +14 06 45.35  .64990 1.6234 156.1 21.6
2022 09 08 06  22 12 48.063   +14 06 50.85  .64988 1.6233 156.1 21.6
2022 09 08 07  22 12 49.897   +14 06 56.30  .64987 1.6233 156.1 21.6
2022 09 08 08  22 12 51.734   +14 07 01.71  .64986 1.6232 156.1 21.6
2022 09 08 09  22 12 53.573   +14 07 07.08  .64985 1.6232 156.1 21.6
2022 09 08 10  22 12 55.414   +14 07 12.41  .64984 1.6232 156.1 21.6
2022 09 08 11  22 12 57.256   +14 07 17.70  .64983 1.6231 156.1 21.6
2022 09 08 12  22 12 59.101   +14 07 22.95  .64981 1.6231 156.1 21.6
2022 09 08 13  22 13 00.948   +14 07 28.16  .64980 1.6231 156.1 21.6
2022 09 08 14  22 13 02.797   +14 07 33.33  .64979 1.6230 156.1 21.6